Flag Weather past 2 weeks in Trier, Rhineland-Palatinate, Germany

Now
57 °F

Fog.


Feels Like: 57 °F
Forecast: 49 / 63 °F
Wind: 2 mph from West

Location: Trier-Petrisberg

Current Time: Oct 30, 2014 at 3:58:08 PM

Latest Report: Oct 30, 2014 at 3:00 PM


Visibility: 4 mi

Pressure: 30.25 "Hg

Humidity: 90%

Dew point: 54 °F

Location of TrierLocation

Historic Weather in Trier — Graph

°F

Trier temperature yesterday

Maximum temperature yesterday: 51 °F (at 12:00 PM)
Minimum temperature yesterday: 46 °F (at 1:00 AM)
Average temperature yesterday: 48 °F

Past Weeks' High & Low Weather Summary

 TemperatureHumidityPressure
High73 °F (Oct 18, 5:00 PM)100% (Oct 16, 1:00 AM)30.33 "Hg (Oct 16, 1:00 AM)
Low42 °F (Oct 27, 7:00 AM)58% (Oct 26, 4:00 PM)29.62 "Hg (Oct 21, 5:00 PM)
Average52 °F90%30.10 "Hg
* Reported Oct 15 3:00 PM — Oct 30 2:00 PM, Trier, Weather by CustomWeather, © 2014

Note: Actual official high and low records may vary slightly from our data, if they occured in-between our weather recording intervals... More about our weather records

Advertising

Trier weather history for previous 24 hours

 ConditionsComfort  
Time TempWeatherWind HumidityBarometerVisibility
2:00 PM
Oct 30
57 °FFog.2 mph92%30.25 "Hg3 mi
1:00 PM57 °FFog.2 mph94%30.25 "Hg2 mi
12:00 PM55 °FFog.1 mph95%30.26 "Hg1 mi
11:00 AM54 °FFog.1 mph98%30.25 "Hg1 mi
10:00 AM53 °FFog.1 mph100%30.25 "Hg1 mi
9:00 AM51 °FFog.1 mph100%30.24 "Hg1 mi
8:00 AM51 °FFog.1 mph100%30.23 "Hg1 mi
7:00 AM51 °FFog.1 mph100%30.21 "Hg0 mi
6:00 AM50 °FFog.1 mph100%30.20 "Hg1 mi
5:00 AM50 °FLow clouds.1 mph100%30.19 "Hg0 mi
4:00 AM50 °FLow clouds.1 mph100%30.19 "Hg0 mi
3:00 AM50 °FLow clouds.1 mph100%30.18 "Hg0 mi
2:00 AM50 °FLow clouds.1 mph100%30.18 "Hg1 mi
1:00 AM50 °FLow clouds.1 mph100%30.17 "Hg0 mi
12:00 AM50 °FLow clouds.1 mph100%30.17 "Hg1 mi
11:00 PM
Oct 29
50 °FDrizzle. Low clouds.1 mph100%30.16 "Hg1 mi
10:00 PM50 °FRain. Low clouds.1 mph100%30.16 "Hg1 mi
9:00 PM49 °FLight rain. Low clouds.1 mph99%30.15 "Hg2 mi
8:00 PM49 °FOvercast.1 mph99%30.14 "Hg4 mi
7:00 PM49 °FLight rain. Overcast.1 mph99%30.13 "Hg5 mi
6:00 PM49 °FLight rain. Overcast.1 mph97%30.12 "Hg6 mi
5:00 PM49 °FOvercast.2 mph96%30.10 "Hg9 mi
4:00 PM50 °FOvercast.2 mph91%30.10 "Hg7 mi
3:00 PM50 °FOvercast.3 mph87%30.10 "Hg11 mi
Weather by CustomWeather, © 2014

See weather overviewHow to use our weather pages